Regional Weather Roundup
Issued by NWS

Home | Current Version | Previous Version | Text Only | Print | Product List | Glossary On
Versions: 1 2 3 4 5 6 7 8 9 10 11 12 13 14 15 16 17 18 19 20 21 22 23 24 25 26 27 28 29 30 31 32 33 34 35 36 37 38 39 40 41 42 43 44 45 46 47 48 49 50
979
ASUS43 KDTX 211610
RWRMI
MICHIGAN HOURLY REGIONAL WEATHER ROUNDUP
NATIONAL WEATHER SERVICE DETROIT/PONTIAC MI
ISSUED BY NATIONAL WEATHER SERVICE GRAND RAPIDS MI
1100 AM EST SAT JAN 21 2017

NOTE: "FAIR" INDICATES FEW OR NO CLOUDS BELOW 12,000 FEET WITH NO
SIGNIFICANT WEATHER AND/OR OBSTRUCTION TO VISIBILITY.

MIZ047>049-052>055-059>063-066>070-074>076-081>083-211700-
SOUTHEAST LOWER MICHIGAN

CITY           SKY/WX    TMP DP  RH WIND       PRES   REMARKS
ADRIAN         SUNNY     48  48 100 S7        29.68S
ALMA           FOG       40  39  98 CALM      29.65S VSB<1/4
ANN ARBOR      PTSUNNY   49  48  97 SE8       29.66F
BAD AXE        FOG       41  41 100 SE9       29.69R VSB 1/4
DETROIT CITY   SUNNY     45  45 100 S3        29.70S
DETROIT        PTSUNNY   46  46 100 CALM      29.69F FOG
FLINT          CLOUDY    46  45  96 S9        29.66S FOG
GROSSE ILE     FOG       40  40  99 CALM      29.68S VSB 1/2
HILLSDALE      FOG       46  46 100 S12       29.64S VSB 1/2
HOWELL         FOG       46  45  95 S6        29.65F VSB 1/2

CITY           SKY/WX    TMP DP  RH WIND       PRES   REMARKS
JACKSON        CLOUDY    49  48  97 S7        29.65S FOG
LANSING        FOG       49  46  90 S7        29.64S VSB 1
MASON          FOG       46  46 100 S8        29.65S VSB 1/4
MONROE         SUNNY     49  49 100 S8        29.67S
MT. CLEMENS    FOG       43  43 100 SE6       29.68S VSB 1/4
PONTIAC        FOG       43  42  97 SE5       29.67R VSB 1/16
PORT HOPE        N/A     39  39 100 SE8       29.69R WCI  33
PORT HURON     FOG       45  45 100 S6        29.70S VSB 1/2
TRI CITIES     CLOUDY    42  42 100 CALM      29.66R FOG
YPSILANTI      FOG       45  45 100 CALM      29.69S VSB 1/4
$$
MIZ043>046-050>051-056>058-064>065-071>073-077>080-211700-
SOUTHWEST LOWER MICHIGAN

CITY           SKY/WX    TMP DP  RH WIND       PRES   REMARKS
BENTON HARBOR  CLOUDY    53  49  86 S12       29.58R
BIG RAPIDS     FOG       37  36  98 CALM      29.61S VSB<1/4
COLDWATER      CLOUDY    51  51 100 SE9       29.64R FOG
HOLLAND        PTSUNNY   52  49  89 SE13      29.58F
GRAND RAPIDS   FOG       47  45  93 E6        29.60F VSB 1/2
KALAMAZOO      MOSUNNY   52  48  86 S8        29.62S FOG
MARSHALL       CLOUDY    50  49  98 SE8       29.63S FOG
MOUNT PLEASANT FOG       38  37  99 E6        29.63F VSB<1/4 WCI  33
MUSKEGON       CLOUDY    49  48  97 SE10      29.58S FOG
STURGIS        CLOUDY    52  50  94 S8        29.62S FOG
$$
MIZ016>042-211700-
NORTHERN LOWER MICHIGAN

CITY           SKY/WX    TMP DP  RH WIND       PRES   REMARKS
ALPENA         CLOUDY    34  33  96 SE6       29.68S FOG     WCI  29
BEAVER ISLAND  CLOUDY    34  34 100 E7        29.63S WCI  28
BELLAIRE       LGT SNOW  37  36  98 CALM      29.62F
CADILLAC       FOG       36  35  96 SE5       29.60S VSB 1/4 WCI  32
CHARLEVOIX     CLOUDY    36  36 100 E6        29.64F FOG     WCI  31
GAYLORD        FOG       36  33  89 SE7       29.63R VSB 1/4 WCI  30
HOUGHTON LAKE  FOG       37  36  96 E8        29.63S VSB 1/2 WCI  31
MANISTEE       LGT RAIN  39  39 100 E7        29.58S FOG     WCI  34
OSCODA         CLOUDY    37  37  97 E3        29.68S FOG
PELLSTON       CLOUDY    35  32  88 SE8       29.65R WCI  29
TRAVERSE CITY  CLOUDY    39  37  92 SE5       29.60F
LUDINGTON      CLOUDY    40  40 100 E7        29.57S FOG
$$
MIZ007>008-015-211700-
EASTERN UPPER MICHIGAN

CITY           SKY/WX    TMP DP  RH WIND       PRES   REMARKS
KINROSS        FOG       33  33 100 E9        29.66F VSB 1/4 WCI  25
MACKINAC ISLAN CLOUDY    33  33 100 E7G17     29.65S FOG     WCI  27
NEWBERRY       CLOUDY    33  32  96 E8        29.63R FOG     WCI  26
S. S. MARIE    FOG       34  33  96 E7        29.68R VSB 1   WCI  28
$$
MIZ004>006-011>014-085-211700-
CENTRAL UPPER MICHIGAN

CITY           SKY/WX    TMP DP  RH WIND       PRES   REMARKS
MANISTIQUE     CLOUDY    34  33  97 E6        29.62S FOG     WCI  28
ESCANABA       LGT RAIN  36  35  96 NE7       29.60F FOG     WCI  30
SAWYER-GWINN   FOG       32  32 100 S5        29.59R VSB 0   WCI  27
$$
MIZ001>003-009>011-084-211700-
WESTERN UPPER MICHIGAN

CITY           SKY/WX    TMP DP  RH WIND       PRES   REMARKS
IRON MOUNTAIN  FOG       33  32  96 E6        29.55F VSB<1/4 WCI  28
HOUGHTON       FOG       34  32  92 E9        29.56S VSB 3/4 WCI  27
COPPER HARBOR    N/A     35  33  92 SW8       29.58F WCI  29
IRONWOOD       CLOUDY    36  34  92 SE6       29.51F WCI  31
$$

ABBREVIATIONS USED IN REMARKS
   TC - TEMPERATURE IN CELSIUS
  WCI - WIND CHILL INDEX
   HX - HEAT INDEX
  VSB - VISIBILITY





USA.gov is the U.S. government's official web portal to all federal, state and local government web resources and services.